Regional Weather Roundup
Issued by NWS

Home | Current Version | Previous Version | Text Only | Print | Product List | Glossary On
Versions: 1 2 3 4 5 6 7 8 9 10 11 12 13 14 15 16 17 18 19 20 21 22 23 24 25 26 27 28 29 30 31 32 33 34 35 36 37 38 39 40 41 42 43 44 45 46 47 48 49 50
000
ASUS43 KBIS 010120
RWRND

NORTH DAKOTA REGIONAL WEATHER ROUNDUP
NATIONAL WEATHER SERVICE BISMARCK ND
800 PM CDT TUE SEP 30 2014

NOTE: "FAIR" INDICATES FEW OR NO CLOUDS BELOW 12,000 FEET WITH NO
SIGNIFICANT WEATHER AND/OR OBSTRUCTIONS TO VISIBILITY.


NDZ001>003-009>011-017-010200-
NORTHWEST NORTH DAKOTA

CITY           SKY/WX    TMP DP  RH WIND       PRES   REMARKS
WILLISTON      LGT RAIN  51  50  96 E6        29.52F
MINOT          LGT RAIN  51  50  96 E8        29.50F FOG
MINOT AFB      CLOUDY    52  52 100 E10       29.50F
$$

NDZ018>021-031>035-040>046-010200-
SOUTHWEST NORTH DAKOTA

CITY           SKY/WX    TMP DP  RH WIND       PRES   REMARKS
BISMARCK       LGT RAIN  55  54  96 E14       29.36F FOG
DICKINSON      CLOUDY    51  50  96 NW10      29.47R FOG
GARRISON         N/A     51  50  96 E15       29.45F
HETTINGER ARPT CLOUDY    53  51  93 W15       29.48R
$$

NDZ004>008-012>016-024-026-027-054-010200-
NORTHEAST NORTH DAKOTA

CITY           SKY/WX    TMP DP  RH WIND       PRES   REMARKS
GRAND FORKS    CLOUDY    59  47  64 SE17G26   29.64F
GRND FRKS AFB  CLOUDY    57  52  83 SE10      29.64F
DEVILS LAKE    CLOUDY    55  46  71 SE25G32   29.56S
$$

NDZ022-023-025-028>030-036>039-047>053-010200-
SOUTHEAST NORTH DAKOTA

CITY           SKY/WX    TMP DP  RH WIND       PRES   REMARKS
FARGO          CLOUDY    59  48  67 SE18G28   29.64S
JAMESTOWN      CLOUDY    53  51  93 E22G30    29.51F
$$



USA.gov is the U.S. government's official web portal to all federal, state and local government web resources and services.